Torna al catalogo

STARLINK-4073

AttivoComunicazioniVLEO
NORAD 52672·PAYLOAD·🇺🇸 United States

Lanciato May 18, 2022 da Cape Canaveral Space Force Station

Loading…

Prossimi Passaggi (prossime 24 ore)

TLE

AggiornatoSource: CelesTrak SupGP

Epoca: Sep 15, 2026, 01:31 UTC

1 52672C 22053S   26258.06368056 -.00021012  00000+0 -13179-2 0  2589
2 52672  53.1608  23.3590 0001283  89.8397  67.2766 15.08840255    10

Traccia STARLINK-4073 in tempo reale con AllMySat

Download on the App Store